Location: Unspecified
(0.0000°N, 0.0000°E)
Time: 05:33:44
(UTC+00:00)

RS-8 - Pass Details

Date: 16 October 2022
Orbit: 1579 x 1660 km, 83.0° (Epoch: 09 December)

Event Time Altitude Azimuth Distance (km) Brightness Sun altitude
Rises 20:35:15 0° 207° (SSW) 4,768 11.0 -41.8°
Reaches altitude 10° 20:38:45 10° 218° (SW) 3,784 10.5 -42.6°
Maximum altitude 20:46:06 28° 273° (W) 2,649 9.5 -44.4°
Drops below altitude 10° 20:53:33 10° 327° (NNW) 3,806 10.2 -46.2°
Sets 20:57:08 0° 339° (NNW) 4,800 10.7 -47.1°
